TimeMST,TemperatureF,Dew PointF,Humidity,Sea Level PressureIn,VisibilityMPH,Wind Direction,Wind SpeedMPH,Gust SpeedMPH,PrecipitationIn,Events,Conditions,WindDirDegrees,DateUTC
12:15 AM,35.6,32.0,87,30.26,10.0,SSE,3.5,-,N/A,,Clear,150,2013-05-10 07:15:00
12:35 AM,35.6,32.0,87,30.26,10.0,Calm,Calm,-,N/A,,Clear,0,2013-05-10 07:35:00
12:55 AM,35.6,32.0,87,30.26,10.0,SSE,9.2,-,N/A,,Clear,150,2013-05-10 07:55:00
1:15 AM,35.6,32.0,87,30.25,10.0,SSE,8.1,-,N/A,,Clear,150,2013-05-10 08:15:00
1:35 AM,33.8,32.0,93,30.25,10.0,SSE,9.2,-,N/A,,Clear,150,2013-05-10 08:35:00
1:55 AM,35.6,32.0,87,30.25,10.0,SSE,9.2,-,N/A,,Clear,150,2013-05-10 08:55:00
2:15 AM,35.6,32.0,87,30.25,10.0,SSE,6.9,-,N/A,,Clear,150,2013-05-10 09:15:00
2:35 AM,32.0,30.2,93,30.25,10.0,SSE,10.4,-,N/A,,Clear,150,2013-05-10 09:35:00
2:55 AM,33.8,32.0,93,30.25,10.0,SSE,8.1,-,N/A,,Clear,150,2013-05-10 09:55:00
3:15 AM,33.8,32.0,93,30.24,10.0,SSE,8.1,-,N/A,,Clear,150,2013-05-10 10:15:00
3:35 AM,33.8,30.2,87,30.25,10.0,Calm,Calm,-,N/A,,Clear,0,2013-05-10 10:35:00
3:55 AM,35.6,32.0,87,30.25,10.0,Calm,Calm,-,N/A,,Clear,0,2013-05-10 10:55:00
4:15 AM,33.8,30.2,87,30.25,10.0,SSE,6.9,-,N/A,,Clear,160,2013-05-10 11:15:00
4:35 AM,35.6,32.0,87,30.25,10.0,SSE,8.1,-,N/A,,Clear,160,2013-05-10 11:35:00
4:55 AM,32.0,28.4,87,30.24,10.0,SSE,8.1,-,N/A,,Clear,150,2013-05-10 11:55:00
5:15 AM,32.0,28.4,87,30.25,10.0,SSE,9.2,-,N/A,,Clear,150,2013-05-10 12:15:00
5:35 AM,32.0,28.4,87,30.25,10.0,SSE,9.2,-,N/A,,Clear,160,2013-05-10 12:35:00
5:55 AM,33.8,30.2,87,30.26,10.0,SSE,9.2,-,N/A,,Clear,150,2013-05-10 12:55:00
6:15 AM,33.8,30.2,87,30.27,10.0,SSE,9.2,-,N/A,,Clear,150,2013-05-10 13:15:00
6:35 AM,37.4,32.0,81,30.27,10.0,SSE,8.1,-,N/A,,Clear,150,2013-05-10 13:35:00
6:55 AM,41.0,32.0,70,30.28,10.0,SSE,5.8,-,N/A,,Clear,150,2013-05-10 13:55:00
7:15 AM,44.6,32.0,61,30.29,10.0,Calm,Calm,-,N/A,,Clear,0,2013-05-10 14:15:00
7:35 AM,50.0,32.0,50,30.29,10.0,SE,4.6,-,N/A,,Clear,130,2013-05-10 14:35:00
7:55 AM,51.8,32.0,47,30.29,10.0,Calm,Calm,-,N/A,,Clear,0,2013-05-10 14:55:00
8:15 AM,53.6,32.0,44,30.29,10.0,Calm,Calm,-,N/A,,Clear,0,2013-05-10 15:15:00
8:35 AM,55.4,32.0,41,30.30,10.0,ENE,4.6,-,N/A,,Clear,70,2013-05-10 15:35:00
8:55 AM,57.2,30.2,36,30.30,10.0,SE,5.8,-,N/A,,Clear,140,2013-05-10 15:55:00
9:15 AM,57.2,28.4,33,30.30,10.0,Calm,Calm,-,N/A,,Clear,0,2013-05-10 16:15:00
9:35 AM,57.2,28.4,33,30.30,10.0,Calm,Calm,-,N/A,,Partly Cloudy,0,2013-05-10 16:35:00
9:55 AM,57.2,26.6,31,30.30,10.0,SSW,3.5,-,N/A,,Scattered Clouds,200,2013-05-10 16:55:00
10:15 AM,57.2,26.6,31,30.30,10.0,West,6.9,-,N/A,,Mostly Cloudy,270,2013-05-10 17:15:00
10:35 AM,57.2,26.6,31,30.31,10.0,SSW,4.6,-,N/A,,Mostly Cloudy,210,2013-05-10 17:35:00
10:55 AM,60.8,26.6,27,30.31,10.0,Calm,Calm,-,N/A,,Mostly Cloudy,0,2013-05-10 17:55:00
11:15 AM,60.8,26.6,27,30.31,10.0,Calm,Calm,-,N/A,,Mostly Cloudy,0,2013-05-10 18:15:00
11:35 AM,59.0,26.6,29,30.31,10.0,North,9.2,-,N/A,,Mostly Cloudy,350,2013-05-10 18:35:00
11:55 AM,59.0,30.2,34,30.31,10.0,NW,11.5,-,N/A,,Mostly Cloudy,320,2013-05-10 18:55:00
12:15 PM,59.0,32.0,36,30.31,10.0,NE,15.0,-,N/A,,Mostly Cloudy,40,2013-05-10 19:15:00
12:35 PM,57.2,32.0,38,30.31,10.0,East,13.8,-,N/A,,Mostly Cloudy,80,2013-05-10 19:35:00
12:55 PM,59.0,32.0,36,30.31,10.0,SSW,11.5,17.3,N/A,,Partly Cloudy,200,2013-05-10 19:55:00
1:15 PM,62.6,30.2,30,30.30,10.0,West,4.6,-,N/A,,Clear,260,2013-05-10 20:15:00
1:35 PM,62.6,28.4,27,30.30,10.0,East,5.8,-,N/A,,Clear,90,2013-05-10 20:35:00
1:55 PM,62.6,26.6,26,30.29,10.0,NNE,5.8,-,N/A,,Partly Cloudy,20,2013-05-10 20:55:00
2:15 PM,60.8,26.6,27,30.29,10.0,East,6.9,-,N/A,,Scattered Clouds,100,2013-05-10 21:15:00
2:35 PM,64.4,28.4,26,30.28,10.0,NW,5.8,-,N/A,,Scattered Clouds,310,2013-05-10 21:35:00
2:55 PM,64.4,30.2,28,30.28,10.0,WSW,4.6,-,N/A,,Partly Cloudy,250,2013-05-10 21:55:00
3:15 PM,66.2,28.4,24,30.27,10.0,NW,10.4,-,N/A,,Scattered Clouds,310,2013-05-10 22:15:00
3:35 PM,64.4,26.6,24,30.27,10.0,NNW,6.9,-,N/A,,Mostly Cloudy,330,2013-05-10 22:35:00
3:55 PM,66.2,24.8,21,30.26,10.0,North,4.6,-,N/A,,Scattered Clouds,360,2013-05-10 22:55:00
4:15 PM,66.2,26.6,23,30.26,10.0,NNW,17.3,-,N/A,,Scattered Clouds,330,2013-05-10 23:15:00
4:35 PM,64.4,32.0,30,30.27,10.0,NW,18.4,21.9,N/A,,Partly Cloudy,320,2013-05-10 23:35:00
4:55 PM,60.8,32.0,34,30.29,10.0,North,18.4,24.2,N/A,,Partly Cloudy,350,2013-05-10 23:55:00
5:15 PM,59.0,32.0,36,30.29,10.0,NNW,12.7,21.9,N/A,,Clear,340,2013-05-11 00:15:00
5:35 PM,59.0,32.0,36,30.29,10.0,North,11.5,16.1,N/A,,Clear,350,2013-05-11 00:35:00
5:55 PM,57.2,32.0,38,30.29,10.0,NNW,10.4,-,N/A,,Clear,330,2013-05-11 00:55:00
6:15 PM,57.2,32.0,38,30.30,10.0,NNW,8.1,-,N/A,,Clear,330,2013-05-11 01:15:00
6:35 PM,57.2,32.0,38,30.31,10.0,North,6.9,-,N/A,,Clear,10,2013-05-11 01:35:00
6:55 PM,55.4,32.0,41,30.31,10.0,North,5.8,-,N/A,,Clear,350,2013-05-11 01:55:00
7:15 PM,55.4,32.0,41,30.32,10.0,NNW,4.6,-,N/A,,Clear,340,2013-05-11 02:15:00
7:35 PM,53.6,32.0,44,30.33,10.0,Calm,Calm,-,N/A,,Clear,0,2013-05-11 02:35:00
7:55 PM,51.8,32.0,47,30.34,10.0,Calm,Calm,-,N/A,,Clear,0,2013-05-11 02:55:00
8:15 PM,50.0,32.0,50,30.34,10.0,South,4.6,-,N/A,,Unknown,170,2013-05-11 03:15:00
8:35 PM,48.2,32.0,54,30.35,10.0,SSE,3.5,-,N/A,,Unknown,150,2013-05-11 03:35:00
8:55 PM,48.2,32.0,54,30.36,10.0,SSE,6.9,-,N/A,,Clear,150,2013-05-11 03:55:00
9:15 PM,51.8,30.2,44,30.37,10.0,ENE,8.1,-,N/A,,Partly Cloudy,70,2013-05-11 04:15:00
9:35 PM,55.4,30.2,38,30.37,10.0,East,9.2,-,N/A,,Clear,80,2013-05-11 04:35:00
9:55 PM,53.6,32.0,44,30.38,10.0,East,11.5,-,N/A,,Clear,100,2013-05-11 04:55:00
10:15 PM,53.6,32.0,44,30.39,10.0,East,15.0,26.5,N/A,,Clear,80,2013-05-11 05:15:00
10:35 PM,53.6,32.0,44,30.38,10.0,East,20.7,25.3,N/A,,Partly Cloudy,90,2013-05-11 05:35:00
10:55 PM,53.6,30.2,41,30.39,10.0,ESE,8.1,-,N/A,,Partly Cloudy,110,2013-05-11 05:55:00
11:15 PM,51.8,30.2,44,30.40,10.0,NE,11.5,-,N/A,,Clear,40,2013-05-11 06:15:00
11:55 PM,50.0,32.0,50,30.43,10.0,NE,12.7,21.9,N/A,,Clear,40,2013-05-11 06:55:00